sat.trackr.live / text

‹ back to catalog

STARLINK-34470

NORAD 64703 · 2025-142H

PAYLOAD ACTIVE UNKNOWN

§ Identity

Operator
Country
US
Launch date
2025-06-28
Launch site
AFWTR
Launch vehicle
Mass (kg)
RCS (m²)

Purposes: comms

External: N2YO · Heavens-Above · Gunter

§ Orbital elements

Epoch: 2026-09-20T11:34:46.281504Z

Period
94.14 min
Inclination
70.0004°
Eccentricity
0.0002971
Mean motion
15.29586665 rev/d
Perigee alt
475.0 km
Apogee alt
479.1 km
Semi-major
6,855.2 km
B*
4.4919e-4
RAAN
181.1044°
Arg perigee
276.0045°
Mean anomaly
84.0791°
Rev number
6,869

§ Raw data

STARLINK-344701 64703U 25142H   26263.48248011  .00012809  00000+0  44919-3 0  99902 64703  70.0004 181.1044 0002971 276.0045  84.0791 15.29586665 68696

JSON: /api/v1/satellites/64703 · /tle

For live sub-satellite position, see the globe view (requires WebGL).

§ Visibility from observer

Set your observer location to see the next 7 days of passes ≥ 10°. The values pass through the URL so the page stays shareable.

No JS? Fill the form by hand. The geolocation button needs JavaScript.